W2CJS Weather Reports


Display with metric or nautical units.
time (UTC)temp
F
wind
direction
speed
MPH
gust
MPH
rain 1hr
in
rain 24hr
in
rain mn
in
humidity
%
barometer
mb
20260906005003 60 109 0.0 1.0 0.00 0.04 0.04 92 1014.6
20260906004003 60 109 0.0 1.0 0.00 0.04 0.04 92 1014.3
20260906003024 61 0 0.0 0.0 0.00 0.04 0.04 91 1014.4
20260906002003 61 109 0.0 1.0 0.00 0.04 0.04 91 1014.2
20260906001003 61 0 0.0 0.0 0.00 0.04 0.04 89 1014.3
20260906000024 61 109 0.0 1.0 0.00 0.04 0.04 89 1014.4
20260905235003 62 82 1.0 3.0 0.00 0.04 0.04 88 1014.3
20260905234003 62 37 1.0 9.0 0.00 0.04 0.04 86 1014.2
20260905233003 63 49 1.0 4.0 0.00 0.04 0.04 85 1014.1
20260905232024 63 36 0.0 3.0 0.00 0.04 0.04 85 1014.0
20260905231003 63 36 0.0 3.0 0.00 0.04 0.04 84 1013.9
20260905230024 63 46 1.0 5.0 0.00 0.04 0.04 83 1014.0
20260905225003 63 64 1.0 2.0 0.00 0.04 0.04 84 1013.9
20260905224003 64 39 1.0 5.0 0.00 0.04 0.04 83 1013.9
20260905223003 64 44 0.0 2.0 0.00 0.04 0.04 85 1013.7
20260905222003 64 49 1.0 3.0 0.00 0.04 0.04 84 1013.5
20260905221003 64 66 0.0 3.0 0.00 0.04 0.04 84 1013.6
20260905220003 65 86 1.0 4.0 0.00 0.04 0.04 84 1013.5
20260905215003 65 99 1.0 5.0 0.00 0.04 0.04 82 1013.4
20260905214003 65 86 1.0 4.0 0.00 0.04 0.04 82 1013.3
20260905213003 65 60 1.0 6.0 0.00 0.04 0.04 81 1013.2
20260905212003 65 55 0.0 3.0 0.00 0.04 0.04 82 1013.2
20260905211003 65 79 1.0 5.0 0.00 0.04 0.04 81 1013.2
20260905210024 65 103 0.0 2.0 0.00 0.04 0.04 84 1013.4
20260905205003 65 71 1.0 8.0 0.00 0.04 0.04 84 1013.2
20260905204003 65 94 1.0 2.0 0.00 0.04 0.04 83 1013.1
20260905203024 65 91 1.0 3.0 0.00 0.04 0.04 84 1013.1
20260905202003 65 37 2.0 8.0 0.00 0.04 0.04 82 1013.0
20260905201003 66 48 1.0 4.0 0.00 0.04 0.04 82 1013.0
20260905200024 66 42 1.0 5.0 0.00 0.04 0.04 83 1012.9
20260905195004 65 74 1.0 6.0 0.00 0.04 0.04 84 1012.9
20260905194003 65 79 2.0 8.0 0.00 0.04 0.04 83 1013.0
20260905193003 66 94 1.0 2.0 0.04 0.04 0.04 83 1012.9
20260905192003 66 94 0.0 1.0 0.04 0.04 0.04 89 1012.9
20260905191024 65 71 1.0 4.0 0.04 0.04 0.04 84 1012.9
20260905190003 66 146 0.0 3.0 0.04 0.04 0.04 84 1012.8
20260905185003 66 113 0.0 3.0 0.04 0.04 0.04 86 1012.9
20260905184003 67 57 0.0 2.0 0.04 0.04 0.04 82 1012.8
20260905183024 68 193 2.0 4.0 0.00 0.00 0.00 75 1012.7
20260905182003 67 91 1.0 4.0 0.00 0.00 0.00 78 1012.8
20260905181003 66 141 0.0 2.0 0.00 0.00 0.00 80 1012.7
20260905180003 66 98 1.0 6.0 0.00 0.00 0.00 78 1012.7
20260905175003 67 69 1.0 4.0 0.00 0.00 0.00 78 1012.9
20260905174024 67 77 1.0 3.0 0.00 0.00 0.00 77 1012.9
20260905173003 67 85 1.0 3.0 0.00 0.00 0.00 77 1012.8
20260905172024 66 81 1.0 6.0 0.00 0.00 0.00 78 1012.8
20260905171003 66 104 2.0 6.0 0.00 0.00 0.00 78 1012.8
20260905170003 66 67 1.0 5.0 0.00 0.00 0.00 77 1012.9
20260905165003 67 40 2.0 6.0 0.00 0.00 0.00 77 1013.0
20260905164003 67 88 2.0 6.0 0.00 0.00 0.00 77 1013.0
20260905163024 67 92 2.0 5.0 0.00 0.00 0.00 76 1013.1
20260905162003 66 81 1.0 3.0 0.00 0.00 0.00 79 1013.1
20260905161003 65 94 1.0 3.0 0.00 0.00 0.00 83 1013.1
20260905160024 64 100 1.0 3.0 0.00 0.00 0.00 83 1013.2
20260905155003 65 120 0.0 4.0 0.00 0.00 0.00 82 1013.2
20260905154003 65 124 1.0 3.0 0.00 0.00 0.00 81 1013.1
20260905153024 65 200 1.0 4.0 0.00 0.00 0.00 82 1013.1
20260905152003 64 73 0.0 4.0 0.00 0.00 0.00 85 1013.3
20260905151003 64 119 0.0 2.0 0.00 0.00 0.00 84 1013.4
20260905150003 63 113 1.0 3.0 0.00 0.00 0.00 86 1013.4
20260905145003 62 99 0.0 3.0 0.00 0.00 0.00 89 1013.4
20260905144003 62 0 0.0 0.0 0.00 0.00 0.00 89 1013.4
20260905143003 62 41 1.0 4.0 0.00 0.00 0.00 89 1013.3
20260905142003 62 56 0.0 2.0 0.00 0.00 0.00 91 1013.2
20260905141003 61 0 0.0 0.0 0.00 0.00 0.00 91 1013.4
20260905140024 61 76 1.0 3.0 0.00 0.00 0.00 91 1013.4
20260905135003 60 116 1.0 3.0 0.00 0.00 0.00 92 1013.3
20260905134003 60 234 0.0 2.0 0.00 0.00 0.00 92 1013.3
20260905133024 60 209 1.0 4.0 0.00 0.00 0.00 92 1013.4
20260905132003 60 98 0.0 3.0 0.00 0.00 0.00 93 1013.3
20260905131024 60 99 0.0 4.0 0.00 0.00 0.00 93 1013.2
20260905130003 59 0 0.0 0.0 0.00 0.00 0.00 93 1013.1
20260905125003 59 0 0.0 0.0 0.00 0.00 0.00 94 1013.1
20260905124003 59 0 0.0 0.0 0.00 0.00 0.00 94 1013.1
20260905123003 59 0 0.0 0.0 0.00 0.00 0.00 94 1013.0
20260905122003 59 256 0.0 1.0 0.00 0.00 0.00 94 1012.9
20260905121003 59 256 0.0 4.0 0.00 0.00 0.00 94 1012.7
20260905120003 59 0 0.0 0.0 0.00 0.00 0.00 95 1012.7
20260905115003 58 0 0.0 0.0 0.00 0.00 0.00 95 1012.6
20260905114003 58 0 0.0 0.0 0.00 0.00 0.00 95 1012.5
20260905113003 58 0 0.0 0.0 0.00 0.00 0.00 95 1012.5
20260905112003 58 0 0.0 0.0 0.00 0.00 0.00 95 1012.3
20260905111003 58 0 0.0 0.0 0.00 0.00 0.00 96 1012.2
20260905110003 58 0 0.0 0.0 0.00 0.00 0.00 95 1012.1
20260905105003 58 0 0.0 0.0 0.00 0.00 0.00 96 1012.1
20260905104003 58 0 0.0 0.0 0.00 0.00 0.00 96 1012.1
20260905103003 58 0 0.0 0.0 0.00 0.00 0.00 96 1011.9
20260905102003 58 0 0.0 0.0 0.00 0.00 0.00 96 1011.9
20260905101003 58 0 0.0 0.0 0.00 0.00 0.00 96 1012.0
20260905100003 58 0 0.0 0.0 0.00 0.00 0.00 96 1011.9
20260905095003 58 0 0.0 0.0 0.00 0.00 0.00 96 1012.0
20260905094003 58 0 0.0 0.0 0.00 0.00 0.00 96 1011.9
20260905093003 57 0 0.0 0.0 0.00 0.00 0.00 96 1011.9
20260905092024 57 0 0.0 0.0 0.00 0.00 0.00 96 1012.0
20260905091003 57 256 0.0 3.0 0.00 0.00 0.00 97 1011.9
20260905090003 56 256 0.0 1.0 0.00 0.00 0.00 96 1011.8
20260905085003 55 256 0.0 2.0 0.00 0.00 0.00 96 1011.8
20260905084003 55 256 0.0 1.0 0.00 0.00 0.00 95 1011.8
20260905083024 55 256 0.0 2.0 0.00 0.00 0.00 95 1011.7
20260905082003 55 0 0.0 0.0 0.00 0.00 0.00 95 1011.8
20260905081003 55 0 0.0 0.0 0.00 0.00 0.00 95 1011.7
20260905080003 56 0 0.0 0.0 0.00 0.00 0.00 95 1011.9
20260905075024 56 0 0.0 0.0 0.00 0.00 0.00 95 1011.9
20260905074003 56 0 0.0 0.0 0.00 0.00 0.00 95 1011.9
20260905073003 56 0 0.0 0.0 0.00 0.00 0.00 95 1011.9
20260905072003 55 0 0.0 0.0 0.00 0.00 0.00 96 1012.0
20260905071003 55 0 0.0 0.0 0.00 0.00 0.00 95 1012.0
20260905070003 55 0 0.0 0.0 0.00 0.00 0.00 95 1012.1
20260905065003 54 0 0.0 0.0 0.00 0.00 0.00 95 1012.1
20260905064003 54 0 0.0 0.0 0.00 0.00 0.00 94 1012.1
20260905063024 55 0 0.0 0.0 0.00 0.00 0.00 94 1012.1
20260905062003 55 0 0.0 0.0 0.00 0.00 0.00 94 1012.2
20260905061003 55 0 0.0 0.0 0.00 0.00 0.00 94 1012.3
20260905060024 55 0 0.0 0.0 0.00 0.00 0.00 94 1012.2
20260905055024 56 0 0.0 0.0 0.00 0.00 0.00 94 1012.1
20260905054003 56 0 0.0 0.0 0.00 0.00 0.00 94 1012.3
20260905053003 56 0 0.0 0.0 0.00 0.00 0.00 94 1012.3
20260905052003 57 0 0.0 0.0 0.00 0.00 0.00 94 1012.2
20260905051003 57 0 0.0 0.0 0.00 0.00 0.00 93 1012.2
20260905050003 58 0 0.0 0.0 0.00 0.00 0.00 94 1012.3
20260905045003 58 0 0.0 0.0 0.00 0.00 0.00 94 1012.5
20260905044003 58 0 0.0 0.0 0.00 0.00 0.00 94 1012.4
20260905043003 58 0 0.0 0.0 0.00 0.00 0.00 93 1012.4
20260905042003 59 0 0.0 0.0 0.00 0.00 0.00 93 1012.2
20260905041003 59 0 0.0 0.0 0.00 0.00 0.00 93 1012.4
20260905040003 59 0 0.0 0.0 0.00 0.00 0.00 94 1012.4
20260905035003 59 0 0.0 0.0 0.00 0.00 0.00 94 1012.5
20260905034003 59 0 0.0 0.0 0.00 0.00 0.00 94 1012.7
20260905033003 59 0 0.0 0.0 0.00 0.00 0.00 93 1012.7
20260905032003 59 0 0.0 0.0 0.00 0.00 0.00 93 1012.6
20260905031003 60 0 0.0 0.0 0.00 0.00 0.00 93 1012.6
20260905030003 60 0 0.0 0.0 0.00 0.00 0.00 93 1012.7
20260905025003 60 0 0.0 0.0 0.00 0.00 0.00 92 1012.6
20260905024003 60 0 0.0 0.0 0.00 0.00 0.00 92 1012.7
20260905023003 60 0 0.0 0.0 0.00 0.00 0.00 92 1012.7
20260905022003 60 0 0.0 0.0 0.00 0.00 0.00 91 1012.7
20260905021003 61 0 0.0 0.0 0.00 0.00 0.00 91 1012.7
20260905020003 61 0 0.0 0.0 0.00 0.00 0.00 91 1012.7
20260905015003 62 0 0.0 0.0 0.00 0.00 0.00 90 1012.6
20260905014003 62 0 0.0 0.0 0.00 0.00 0.00 90 1012.6
20260905013003 62 0 0.0 0.0 0.00 0.00 0.00 90 1012.7
20260905012003 63 0 0.0 0.0 0.00 0.00 0.00 89 1012.8
20260905011003 63 0 0.0 0.0 0.00 0.00 0.00 88 1012.7
20260905010003 64 0 0.0 0.0 0.00 0.00 0.00 87 1012.9